[[{"header":{"parameterUnit":"m.s-1","parameterCategory":1,"la1":30.2991,"la2":30.254,"lo1":-89.0895,"lo2":-89.0444,"dy":0.0017,"dx":0.0017,"nx":28,"ny":28,"refTime":"2025-02-13T03:00:00:Z","depth":0,"parameterNumber":2,"parameterNumberName":"U-component_of_WINDS"},"data":[0,0,0,0,0,0,0,0,0,0,0,0,0,0,0,0,0,0,0,0,0,0,0,0,0,0,0,0,0,0,0,0,0,0,0,0,0,0,0,0,0,0,0,0,0,0,0,0,0,0,0,0,0,0,0,0,0,0,0.9697,0.9696,0,0.9585,0.9584,0.9583,0.9523,0.9523,0.9523,0.9523,0.9411,0.9408,0.9405,0,0,0,0,0,0,0,0,0,0,0,0,0,0.9862,0.986,0.9697,0.9696,0.9694,0.9585,0.9584,0.9582,0.9523,0.9523,0.9523,0.9523,0.9412,0.9408,0.9405,0,0,0,0,0,0,0,0,0,0,0,0,0,0.9775,0.9859,0.9697,0.9652,0.9646,0.9586,0.9584,0.9582,0.9523,0.9523,0.9523,0.9523,0.9413,0.9409,0.9405,0.9381,0,0,0.9391,0.939,0,0,0,0,0,0,0,0,0.978,0.9769,0.966,0.9655,0.9649,0.9568,0.9601,0.9515,0.9523,0.957,0.9523,0.9523,0.9463,0.9455,0.9434,0.9376,0.9371,0.9391,0.9388,0.9387,0.9385,0,0,0,0,0,0,0,0.9786,0.9773,0.9653,0.9658,0.9652,0.9638,0.9625,0.9584,0.9519,0.9566,0.9561,0.9549,0.946,0.9439,0.9431,0.937,0.9391,0.9387,0.9385,0.9383,0.9287,0.9287,0,0,0,0,0,0,0.9799,0.9779,0.9656,0.9649,0.9715,0.9635,0.9621,0.9594,0.9519,0.9508,0.9549,0.9546,0.9446,0.9436,0.9427,0.9395,0.9387,0.9383,0.938,0.9287,0.9287,0.9287,0,0,0,0,0,0,0.9803,0.9789,0.9661,0.9713,0.9695,0.9632,0.9603,0.9592,0.957,0.9507,0.9495,0.9539,0.9446,0.9433,0.9393,0.939,0.9381,0.9377,0.9287,0.9287,0.9287,0.9331,0,0,0,0,0,0,0.9808,0.979,0.978,0.9713,0.9693,0.9628,0.9603,0.959,0.9562,0.9558,0.9494,0.9483,0.9445,0.94,0.9389,0.9384,0.9373,0.9287,0.9287,0.9287,0.9329,0.9332,0.9335,0,0,0,0,0,0.9814,0.9797,0.978,0.9766,0.9679,0.9628,0.9616,0.9572,0.9563,0.9552,0.9512,0.9485,0.9393,0.9396,0.9383,0.9377,0.9287,0.9287,0.9287,0.9328,0.9331,0.9335,0,0,0,0,0,0,0.9867,0.9788,0.9767,0.9729,0.9685,0.9618,0.9603,0.9577,0.9536,0.9534,0.9481,0.9467,0.9432,0.94,0.9406,0.9351,0.9337,0.9335,0.9372,0.9375,0.9378,0.9386,0.937,0,0,0,0,0,0.9874,0.9839,0.9772,0.9744,0.9723,0.9667,0.9644,0.9613,0.9566,0.9548,0.9504,0.946,0.9421,0.9397,0.9357,0.9325,0.931,0.9314,0.9317,0.932,0.9318,0.9298,0.9299,0.9287,0.9287,0.9287,0,0,0.9889,0.9841,0.9822,0.9754,0.9716,0.9681,0.9652,0.9617,0.959,0.9542,0.9501,0.9468,0.9416,0.9379,0.9361,0.9352,0.9318,0.932,0.9322,0.9319,0.9298,0.93,0.9301,0.9287,0.9287,0.9287,0,0,0.9897,0.9858,0.983,0.9793,0.9737,0.97,0.9693,0.9629,0.9605,0.9563,0.9526,0.9495,0.9429,0.9393,0.9366,0.9362,0.9336,0.9351,0.9365,0.9346,0.9347,0.9348,0.9346,0.9346,0.9349,0.9349,0.935,0,0.9922,0.9867,0.9819,0.9785,0.9756,0.9711,0.9683,0.965,0.9584,0.9566,0.9557,0.9473,0.9435,0.9389,0.9388,0.9368,0.9359,0.9357,0.9351,0.9351,0.9351,0.9349,0.9348,0.9352,0.9351,0.9351,0.9351,0,0.9901,0.9864,0.9848,0.9785,0.9754,0.9724,0.9672,0.9647,0.9619,0.9584,0.9542,0.9494,0.9444,0.9431,0.9404,0.9382,0.9378,0.9361,0.9346,0.9355,0.9352,0.9351,0.9355,0.9354,0.9353,0.9353,0,0,0.9939,0.985,0.9845,0.9815,0.975,0.9721,0.9689,0.9639,0.9618,0.9575,0.9547,0.9492,0.9476,0.9445,0.9414,0.9398,0.9397,0.9382,0.938,0.9386,0.9369,0.9382,0.9382,0.938,0.9379,0.9379,0.9373,0,0.9938,0.9877,0.9833,0.9789,0.9754,0.971,0.9682,0.964,0.9606,0.9571,0.9534,0.9496,0.9477,0.9459,0.9441,0.9401,0.9393,0.9401,0.9353,0.9352,0.9367,0.938,0.9394,0.939,0.9372,0.9372,0.9371,0,0.9928,0.9885,0.9837,0.9776,0.9759,0.9735,0.9686,0.9653,0.9605,0.9581,0.9547,0.9515,0.948,0.9468,0.9419,0.9426,0.9404,0.9382,0.938,0.9374,0.9362,0.9374,0.9388,0.9388,0.9369,0.9369,0.9369,0,0.996,0.9891,0.9853,0.9829,0.9756,0.974,0.9709,0.966,0.9633,0.9591,0.9573,0.9528,0.9503,0.9469,0.9425,0.9421,0.9381,0.9366,0.936,0.9362,0.9353,0.9354,0.9365,0.9341,0.9341,0.9341,0.9341,0,0.9963,0.9936,0.9866,0.9843,0.9811,0.9761,0.9731,0.9697,0.9654,0.9624,0.9584,0.9557,0.9501,0.9468,0.9434,0.9398,0.9388,0.9368,0.9359,0.9371,0.9373,0.9355,0.9354,0.934,0.934,0.934,0.9341,0,0.9993,0.9946,0.9902,0.9836,0.9819,0.9799,0.9743,0.9719,0.9683,0.9646,0.9634,0.9578,0.9536,0.9489,0.9433,0.941,0.9376,0.9364,0.9393,0.9387,0.9385,0.9385,0.9383,0.938,0.9359,0.936,0.936,0,0.9998,0.9976,0.9908,0.9884,0.9854,0.9817,0.9789,0.974,0.9713,0.9655,0.9639,0.9594,0.9555,0.9491,0.9445,0.9402,0.9388,0.939,0.9381,0.9393,0.9387,0.9389,0.9386,0.9392,0.9393,0.9393,0.9394,0,1.0011,0.9989,0.9949,0.9902,0.9869,0.983,0.9789,0.9772,0.9715,0.9687,0.9643,0.9613,0.9554,0.9511,0.9461,0.943,0.9403,0.9397,0.9393,0.9405,0.9422,0.9412,0.9399,0.9397,0.9397,0.9396,0.9396,0.9396,1.0028,1.0006,0.9955,0.9912,0.9876,0.9839,0.9813,0.9774,0.9736,0.9684,0.9658,0.9614,0.9567,0.9497,0.9467,0.9433,0.9424,0.9419,0.9418,0.9417,0.942,0.9428,0.9424,0.9424,0.9424,0.9424,0.9424,0,1.0039,1.0003,0.9965,0.9908,0.9875,0.9851,0.9805,0.9779,0.9741,0.9698,0.9661,0.9611,0.9568,0.952,0.9474,0.9456,0.9442,0.9446,0.9446,0.944,0.9431,0.9438,0.9458,0.9458,0.9458,0.9458,0.9458,0.9458,1.004,1.0001,0.9973,0.9917,0.9882,0.9838,0.9814,0.9779,0.9745,0.969,0.9654,0.9623,0.9578,0.9528,0.9488,0.9475,0.946,0.9467,0.9451,0.9443,0.944,0.9438,0.9444,0.9465,0.9465,0.9462,0.9462,0.9462]},{"header":{"parameterUnit":"m.s-1","parameterCategory":1,"la1":30.2991,"la2":30.254,"lo1":-89.0895,"lo2":-89.0444,"dy":0.0017,"dx":0.0017,"nx":28,"ny":28,"refTime":"2025-02-13T03:00:00:Z","depth":0,"parameterNumber":3,"parameterNumberName":"V-component_of_WINDS"},"data":[0,0,0,0,0,0,0,0,0,0,0,0,0,0,0,0,0,0,0,0,0,0,0,0,0,0,0,0,0,0,0,0,0,0,0,0,0,0,0,0,0,0,0,0,0,0,0,0,0,0,0,0,0,0,0,0,0,0,6.6342,6.6342,0,6.6387,6.6387,6.6388,6.637,6.6369,6.6368,6.6367,6.6416,6.6418,6.642,0,0,0,0,0,0,0,0,0,0,0,0,0,6.6246,6.6248,6.6342,6.6342,6.6343,6.6387,6.6387,6.6388,6.637,6.6369,6.6368,6.6367,6.6415,6.6417,6.642,0,0,0,0,0,0,0,0,0,0,0,0,0,6.6289,6.6249,6.6342,6.6339,6.634,6.6386,6.6387,6.6388,6.6371,6.6369,6.6367,6.6366,6.6414,6.6417,6.6421,6.6473,0,0,6.6431,6.6432,0,0,0,0,0,0,0,0,6.6287,6.6293,6.6339,6.634,6.634,6.6371,6.6371,6.6417,6.6371,6.6359,6.6367,6.6365,6.6402,6.6406,6.6418,6.6475,6.6477,6.6431,6.6433,6.6435,6.6436,0,0,0,0,0,0,0,6.6284,6.6291,6.636,6.634,6.6341,6.6338,6.6342,6.638,6.6389,6.636,6.6359,6.6364,6.6402,6.6415,6.6419,6.6478,6.6431,6.6434,6.6436,6.6438,6.6585,6.6587,0,0,0,0,0,0,6.628,6.6288,6.6358,6.6361,6.6309,6.6341,6.6346,6.6363,6.6388,6.6391,6.6365,6.6363,6.641,6.6415,6.6421,6.6487,6.6435,6.6438,6.644,6.6583,6.6585,6.6587,0,0,0,0,0,0,6.6278,6.6286,6.6356,6.6324,6.6333,6.6344,6.6364,6.6365,6.6377,6.6393,6.6395,6.6377,6.6409,6.6416,6.6461,6.6488,6.6439,6.6443,6.6581,6.6584,6.6586,6.6617,0,0,0,0,0,0,6.6275,6.6286,6.6304,6.6325,6.6335,6.6394,6.6365,6.6367,6.6383,6.6381,6.6404,6.6406,6.6408,6.6456,6.6464,6.6492,6.6445,6.6578,6.6582,6.6585,6.6614,6.6621,6.6626,0,0,0,0,0,6.6272,6.6311,6.6305,6.6314,6.6358,6.6396,6.6401,6.6402,6.6385,6.6405,6.6416,6.6405,6.6484,6.6461,6.647,6.6499,6.6577,6.6581,6.6585,6.6611,6.6619,6.6626,0,0,0,0,0,0,6.6293,6.6313,6.6307,6.6354,6.6373,6.6392,6.6417,6.6411,6.6436,6.6433,6.6434,6.6439,6.6486,6.6497,6.6471,6.6553,6.6528,6.6534,6.6544,6.6552,6.6559,6.6555,6.6448,0,0,0,0,0,6.6303,6.6331,6.6347,6.6387,6.6397,6.6406,6.6422,6.6422,6.6442,6.645,6.6464,6.6485,6.6515,6.6534,6.6562,6.6615,6.6622,6.664,6.6647,6.6652,6.6658,6.669,6.67,6.6601,6.6601,6.6601,0,0,6.6324,6.6339,6.6356,6.6392,6.6406,6.6437,6.6413,6.6445,6.6468,6.6455,6.6499,6.651,6.6534,6.6584,6.6607,6.6595,6.6686,6.6657,6.6661,6.6664,6.6696,6.6705,6.6713,6.6604,6.6604,6.6603,0,0,6.6378,6.6391,6.6427,6.6443,6.6466,6.6472,6.6481,6.6502,6.6509,6.6553,6.6545,6.6574,6.6624,6.6642,6.6658,6.6724,6.6717,6.6733,6.6767,6.6799,6.6806,6.6813,6.6839,6.6848,6.6739,6.6739,6.6739,0,6.6402,6.6446,6.6446,6.648,6.6498,6.6488,6.6526,6.6541,6.6573,6.6586,6.6572,6.6637,6.6653,6.6709,6.6725,6.6738,6.675,6.673,6.6805,6.6812,6.6819,6.6843,6.6853,6.6741,6.6741,6.674,6.674,0,6.6475,6.6506,6.6532,6.6563,6.6584,6.6619,6.6628,6.6648,6.6647,6.6656,6.6703,6.6721,6.6754,6.6768,6.6766,6.6825,6.6817,6.6804,6.6779,6.683,6.6853,6.6863,6.6744,6.6743,6.6742,6.6742,0,0,6.6541,6.6574,6.6584,6.66,6.6626,6.6651,6.6689,6.6721,6.674,6.6763,6.6796,6.6841,6.683,6.6848,6.685,6.6877,6.6932,6.6861,6.6862,6.6876,6.7001,6.7012,6.7023,6.6927,6.6929,6.6931,6.7,0,6.6599,6.6662,6.6666,6.6724,6.6755,6.6748,6.6781,6.6802,6.6812,6.6841,6.6853,6.6885,6.6867,6.6879,6.6906,6.6919,6.6958,6.6914,6.696,6.6962,6.6955,6.7034,6.7045,6.7109,6.7009,6.7011,6.7012,0,6.6673,6.67,6.6762,6.6787,6.68,6.6829,6.6861,6.6888,6.6914,6.692,6.6942,6.694,6.6981,6.6955,6.7013,6.6983,6.7003,6.7013,6.7016,6.702,6.699,6.7043,6.7129,6.714,6.7026,6.7024,6.7023,0,6.6719,6.6769,6.6814,6.6827,6.6857,6.6879,6.6893,6.6916,6.6937,6.6966,6.698,6.7013,6.7031,6.7058,6.7067,6.7046,6.7126,6.7099,6.7134,6.7134,6.7151,6.715,6.7243,6.7161,6.7161,6.7161,6.7161,0,6.6783,6.6822,6.6835,6.6862,6.6907,6.6912,6.6956,6.6969,6.6991,6.7023,6.7019,6.7049,6.7058,6.7091,6.7098,6.7147,6.7155,6.7162,6.7164,6.7163,6.7163,6.7176,6.7173,6.7164,6.7163,6.7162,6.7162,0,6.684,6.685,6.6899,6.6925,6.6932,6.6964,6.6987,6.7015,6.7025,6.7066,6.7076,6.7093,6.7132,6.7143,6.7189,6.7194,6.7252,6.7249,6.7244,6.7244,6.7279,6.7276,6.7385,6.7401,6.7307,6.7308,6.7309,0,6.6881,6.6911,6.6941,6.6961,6.6976,6.701,6.7031,6.7038,6.7061,6.7095,6.712,6.7158,6.7189,6.7251,6.7269,6.7306,6.7304,6.734,6.731,6.7309,6.7308,6.7306,6.7311,6.7346,6.7347,6.7348,6.7348,0,6.6953,6.6958,6.6988,6.7022,6.7048,6.7074,6.71,6.7118,6.7129,6.7156,6.7195,6.722,6.7268,6.7307,6.7345,6.7362,6.7359,6.7358,6.7369,6.7368,6.7365,6.737,6.7261,6.7355,6.7355,6.7354,6.7354,6.7354,6.7005,6.7032,6.7058,6.7094,6.7114,6.7139,6.7168,6.7183,6.7215,6.7255,6.7258,6.7302,6.7331,6.7381,6.74,6.7436,6.7426,6.744,6.7444,6.7448,6.7452,6.7359,6.7443,6.7443,6.7442,6.7442,6.7442,0,6.7079,6.7096,6.7128,6.7165,6.7194,6.7188,6.7217,6.7242,6.728,6.7307,6.7338,6.7386,6.7425,6.7447,6.7486,6.7511,6.7511,6.7522,6.752,6.7525,6.7457,6.7445,6.7521,6.7521,6.7521,6.7521,6.7521,6.7521,6.712,6.7168,6.7176,6.7235,6.7252,6.7294,6.7312,6.7336,6.7358,6.7411,6.7443,6.7457,6.7484,6.7526,6.7562,6.7568,6.7584,6.7596,6.7601,6.7537,6.7529,6.7521,6.751,6.7599,6.7599,6.7666,6.7666,6.7667]}]]